Regional Weather Roundup
Issued by NWS

Home | Current Version | Previous Version | Text Only | Print | Product List | Glossary On
Versions: 1 2 3 4 5 6 7 8 9 10 11 12 13 14 15 16 17 18 19 20 21 22 23 24 25 26 27 28 29 30 31 32 33 34 35 36 37 38 39 40 41 42 43 44 45 46 47 48 49 50
000
ASUS45 KREV 271410
RWRNV
NEVADA REGIONAL WEATHER ROUNDUP
NATIONAL WEATHER SERVICE RENO NV
700 AM PDT WED MAY 27 2015

NOTE: "FAIR" INDICATES FEW OR NO CLOUDS BELOW 12,000 FEET WITH NO
SIGNIFICANT WEATHER AND/OR OBSTRUCTIONS TO VISIBILITY.

NVZ001-003-004-271500-
WESTERN NEVADA

CITY           SKY/WX    TMP DP  RH WIND       PRES   REMARKS
RENO           MOSUNNY   54  38  54 CALM      30.08S
CARSON CITY    FAIR      50  39  66 CALM      30.09S
MINDEN         FAIR      46  39  76 CALM      30.10
SLIDE MTN        N/A     45  23  42 CALM        N/A
PYRAMID LAKE     N/A     63 N/A N/A SE1         N/A
FALLON         MOSUNNY   59  41  51 S3        30.03R
LOVELOCK       SUNNY     55  47  74 E5        30.01S
HAWTHORNE      SUNNY     64  41  42 CALM      30.05R
$$

NVZ002-CAZ072-073-271500-
NORTHERN AND CENTRAL SIERRA

CITY           SKY/WX    TMP DP  RH WIND       PRES   REMARKS
S. LAKE TAHOE  SUNNY     40  35  83 CALM      30.14R
TRUCKEE        SUNNY     36  36 100 CALM      30.15R
SQUAW VLY 8000   N/A     48  36  61 CALM        N/A
SUSANVILLE     PTSUNNY   52  43  71 CALM      30.06R
BLUE CANYON    SUNNY     56  36  47 CALM      30.10R
MAMMOTH LAKES  FAIR      43  37  81 CALM      30.17S
BRIDGEPORT     FAIR      37  29  72 CALM      30.15R
$$

NVZ030-031-036-271500-
NORTHERN NEVADA

CITY           SKY/WX    TMP DP  RH WIND       PRES   REMARKS
ELKO           PTSUNNY   50  46  86 E6        30.08R
WINNEMUCCA     CLOUDY    51  46  83 S3        30.04R
WENDOVER       CLOUDY    52  46  82 SE5       30.06S
$$

NVZ035-037-271500-
CENTRAL NEVADA

CITY           SKY/WX    TMP DP  RH WIND       PRES   REMARKS
ELY            MOSUNNY   49  42  77 N5        30.14S
EUREKA           N/A     47  43  86 SE6       30.12R
$$

NVZ013-014-271500-
SOUTH CENTRAL NEVADA

CITY           SKY/WX    TMP DP  RH WIND       PRES   REMARKS
TONOPAH        SUNNY     58  41  53 N8        30.08S
$$

NVZ017-020-022-271500-
SOUTHERN NEVADA

CITY           SKY/WX    TMP DP  RH WIND       PRES   REMARKS
LAS VEGAS      PTSUNNY   73  33  23 SW6       29.90R
N. LAS VEGAS   SUNNY     72  32  23 CALM      29.93R
NELLIS AFB     SUNNY     73  38  28 E10       29.91R
HENDERSON      MOSUNNY   70  40  33 SE6       29.96R
MERCURY        NOT AVBL
$$



USA.gov is the U.S. government's official web portal to all federal, state and local government web resources and services.